Weather History for KSTE - March, 2013

Change the Weather History Date:

Thursday, March 28, 2013

  Actual Average Record
Temperature  
Mean Temperature 26 °F -  
Max Temperature 40 °F 47 °F 75 °F (1989)
Min Temperature 12 °F 28 °F -1 °F (1955)
Degree Days  
Heating Degree Days 39    
Moisture  
Dew Point 15 °F    
Average Humidity 61    
Maximum Humidity 93    
Minimum Humidity 35    
Precipitation  
Precipitation 0.00 in - - ()
Sea Level Pressure  
Sea Level Pressure 30.29 in    
Wind  
Wind Speed 2 mph (WNW)    
Max Wind Speed 13 mph    
Max Gust Speed 18 mph    
Visibility 10 miles    
Events      
Averages and records for this station are not official NWS values.
T = Trace of Precipitation, MM = Missing Value Source: NWS Daily Summary

Daily Weather History Graph

Daily Weather History Graph

Search for Another Location

Airport or City:

Trip Planner

Search our weather history database for the weather conditions in past years. The results will help you decide how hot, cold, wet, or windy it might be!

Date:

Astronomy

Mar. 28, 2013 Rise Set
Actual Time 6:45 AM CDT 7:20 PM CDT
Civil Twilight 6:16 AM CDT 7:50 PM CDT
Nautical Twilight 5:42 AM CDT 8:24 PM CDT
Astronomical Twilight 5:06 AM CDT 9:01 PM CDT
Moon 9:18 PM CDT (3/28) 7:09 AM CDT (3/28)
Length of Visible Light 13h 33m
Length of Day
12h 34m
Full, 98% of the Moon is Illuminated
Mar 28
Full
Apr 2
Last Quarter
Apr 10
New
Apr 18
First Quarter
Apr 25
Full

Hourly Weather History & Observations

Time (CDT) Temp. Windchill Dew Point Humidity Pressure Visibility Wind Dir Wind Speed Gust Speed Precip Events Conditions
12:15 AM 19.9 °F - 16.2 °F 85% 30.28 in 10.0 mi Calm Calm - N/A   Clear
12:35 AM 20.1 °F - 15.1 °F 81% 30.28 in 10.0 mi Calm Calm - N/A   Clear
12:55 AM 21.7 °F - 15.6 °F 77% 30.29 in 10.0 mi Calm Calm - N/A   Clear
1:15 AM 20.8 °F - 15.4 °F 80% 30.29 in 10.0 mi Calm Calm - N/A   Clear
1:35 AM 19.4 °F - 14.9 °F 83% 30.29 in 10.0 mi Calm Calm - N/A   Clear
1:55 AM 18.1 °F - 15.1 °F 88% 30.30 in 10.0 mi Calm Calm - N/A   Clear
2:35 AM 17.4 °F - 14.4 °F 88% 30.29 in 10.0 mi Calm Calm - N/A   Clear
2:55 AM 17.8 °F - 15.3 °F 90% 30.30 in 10.0 mi Calm Calm - N/A   Clear
3:15 AM 17.4 °F - 14.2 °F 87% 30.30 in 10.0 mi Calm Calm - N/A   Clear
3:35 AM 17.4 °F - 14.2 °F 87% 30.30 in 10.0 mi Calm Calm - N/A   Clear
3:55 AM 16.7 °F - 14.0 °F 89% 30.30 in 10.0 mi Calm Calm - N/A   Clear
4:15 AM 14.9 °F - 11.8 °F 88% 30.30 in 10.0 mi Calm Calm - N/A   Clear
4:35 AM 16.2 °F - 13.1 °F 88% 30.30 in 10.0 mi Calm Calm - N/A   Clear
4:55 AM 15.1 °F - 12.6 °F 90% 30.30 in 10.0 mi Calm Calm - N/A   Clear
5:15 AM 14.7 °F - 12.4 °F 90% 30.30 in 10.0 mi Calm Calm - N/A   Clear
5:35 AM 14.9 °F - 12.7 °F 91% 30.30 in 10.0 mi Calm Calm - N/A   Clear
5:55 AM 14.2 °F - 12.2 °F 92% 30.30 in 10.0 mi Calm Calm - N/A   Clear
6:15 AM 13.6 °F - 11.8 °F 93% 30.31 in 10.0 mi Calm Calm - N/A   Clear
6:35 AM 12.4 °F - 9.0 °F 86% 30.31 in 10.0 mi Calm Calm - N/A   Clear
6:55 AM 13.1 °F - 11.3 °F 93% 30.31 in 10.0 mi Calm Calm - N/A   Clear
7:15 AM 13.3 °F - 11.1 °F 91% 30.32 in 10.0 mi Calm Calm - N/A   Clear
7:35 AM 13.8 °F - 12.0 °F 93% 30.32 in 10.0 mi Calm Calm - N/A   Clear
7:55 AM 14.5 °F - 11.8 °F 89% 30.33 in 10.0 mi Calm Calm - N/A   Clear
8:15 AM 17.2 °F - 13.6 °F 86% 30.33 in 10.0 mi Calm Calm - N/A   Clear
8:35 AM 20.5 °F - 14.9 °F 79% 30.32 in 10.0 mi Calm Calm - N/A   Clear
8:55 AM 23.9 °F - 14.7 °F 68% 30.32 in 10.0 mi Calm Calm - N/A   Clear
9:15 AM 27.7 °F - 15.1 °F 59% 30.32 in 10.0 mi Calm Calm - N/A   Clear
9:35 AM 32.9 °F 27.5 °F 15.3 °F 48% 30.32 in 10.0 mi WNW 5.8 mph - N/A   Clear
9:55 AM 34.3 °F 30.2 °F 15.3 °F 46% 30.32 in 10.0 mi West 4.6 mph - N/A   Clear
10:15 AM 35.6 °F 29.9 °F 15.1 °F 43% 30.32 in 10.0 mi NNW 6.9 mph - N/A   Clear
10:35 AM 36.3 °F 30.8 °F 14.7 °F 41% 30.32 in 10.0 mi NNW 6.9 mph - N/A   Clear
10:55 AM 36.7 °F 34.1 °F 14.5 °F 40% 30.32 in 10.0 mi WNW 3.5 mph - N/A   Clear
11:15 AM 37.6 °F 34.0 °F 14.5 °F 39% 30.32 in 10.0 mi NW 4.6 mph - N/A   Clear
11:35 AM 37.6 °F 34.0 °F 14.0 °F 38% 30.32 in 10.0 mi NW 4.6 mph - N/A   Clear
11:55 AM 38.3 °F 33.9 °F 13.8 °F 37% 30.31 in 10.0 mi NW 5.8 mph - N/A   Clear
12:15 PM 39.2 °F 33.6 °F 14.7 °F 37% 30.31 in 10.0 mi NW 8.1 mph - N/A   Clear
12:55 PM 39.4 °F 35.2 °F 14.2 °F 36% 30.30 in 10.0 mi NNW 5.8 mph - N/A   Clear
1:15 PM 39.4 °F 37.2 °F 14.5 °F 36% 30.30 in 10.0 mi West 3.5 mph - N/A   Clear
1:35 PM 40.1 °F 38.0 °F 15.3 °F 36% 30.30 in 10.0 mi WNW 3.5 mph - N/A   Clear
1:55 PM 40.1 °F 33.2 °F 15.3 °F 36% 30.30 in 10.0 mi West 11.5 mph 18.4 mph N/A   Clear
2:15 PM 40.1 °F 32.7 °F 15.3 °F 36% 30.29 in 10.0 mi West 12.7 mph - N/A   Clear
2:35 PM 40.1 °F 33.6 °F 14.9 °F 36% 30.29 in 10.0 mi West 10.4 mph - N/A   Clear
2:55 PM 40.1 °F 35.3 °F 14.5 °F 35% 30.28 in 10.0 mi WNW 6.9 mph 16.1 mph N/A   Clear
3:15 PM 40.3 °F 34.9 °F 14.5 °F 35% 30.28 in 10.0 mi West 8.1 mph - N/A   Clear
3:35 PM 40.5 °F 35.8 °F 14.7 °F 35% 30.28 in 10.0 mi WNW 6.9 mph - N/A   Clear
3:55 PM 40.3 °F 34.9 °F 14.7 °F 35% 30.27 in 10.0 mi West 8.1 mph - N/A   Clear
4:15 PM 40.5 °F 35.1 °F 15.4 °F 36% 30.27 in 10.0 mi West 8.1 mph - N/A   Clear
4:35 PM 40.8 °F 35.6 °F 15.8 °F 36% 30.26 in 10.0 mi West 8.1 mph - N/A   Clear
4:55 PM 40.6 °F 34.8 °F 15.4 °F 36% 30.26 in 10.0 mi West 9.2 mph - N/A   Clear
5:15 PM 40.8 °F 36.2 °F 15.4 °F 36% 30.26 in 10.0 mi West 6.9 mph - N/A   Clear
5:35 PM 40.5 °F 37.3 °F 15.3 °F 36% 30.26 in 10.0 mi West 4.6 mph - N/A   Clear
5:55 PM 40.5 °F 37.3 °F 15.6 °F 37% 30.26 in 10.0 mi West 4.6 mph - N/A   Clear
6:35 PM 40.5 °F 37.3 °F 15.3 °F 36% 30.26 in 10.0 mi WNW 4.6 mph - N/A   Clear
6:55 PM 40.1 °F 38.0 °F 14.9 °F 36% 30.26 in 10.0 mi West 3.5 mph - N/A   Clear
7:15 PM 39.2 °F 37.0 °F 14.0 °F 36% 30.26 in 10.0 mi West 3.5 mph - N/A   Clear
7:35 PM 38.1 °F 35.7 °F 14.4 °F 38% 30.26 in 10.0 mi West 3.5 mph - N/A   Clear
7:55 PM 37.0 °F - 14.9 °F 40% 30.26 in 10.0 mi Calm Calm - N/A   Clear
8:15 PM 32.2 °F - 16.5 °F 53% 30.27 in 10.0 mi Calm Calm - N/A   Clear
8:35 PM 32.0 °F - 16.5 °F 53% 30.27 in 10.0 mi Calm Calm - N/A   Clear
8:55 PM 30.4 °F - 16.9 °F 57% 30.28 in 10.0 mi Calm Calm - N/A   Clear
9:15 PM 30.2 °F - 16.9 °F 58% 30.28 in 10.0 mi Calm Calm - N/A   Clear
9:35 PM 28.0 °F - 17.4 °F 64% 30.28 in 10.0 mi Calm Calm - N/A   Clear
9:55 PM 26.1 °F - 17.1 °F 69% 30.28 in 10.0 mi Calm Calm - N/A   Clear
10:15 PM 26.1 °F - 17.6 °F 70% 30.28 in 10.0 mi Calm Calm - N/A   Clear
10:35 PM 25.0 °F - 17.4 °F 73% 30.28 in 10.0 mi Calm Calm - N/A   Clear
10:55 PM 25.3 °F - 17.4 °F 72% 30.28 in 10.0 mi Calm Calm - N/A   Clear
11:15 PM 24.6 °F - 17.4 °F 74% 30.28 in 10.0 mi Calm Calm - N/A   Clear
11:35 PM 24.1 °F - 16.7 °F 73% 30.28 in 10.0 mi Calm Calm - N/A   Clear
11:55 PM 22.6 °F - 16.5 °F 77% 30.28 in 10.0 mi Calm Calm - N/A   Clear